EW0220 Weather Reports


Display with metric or nautical units.
time (UTC)temp
F
wind
direction
speed
MPH
gust
MPH
rain 1hr
in
rain 24hr
in
rain mn
in
humidity
%
barometer
mb
20260906120053 75 291 0.0 0.0 0.00 0.00 0.00 94 1011.8
20260906114603 74 291 0.0 0.0 0.00 0.00 0.00 94 1011.6
20260906113049 74 288 0.0 1.0 0.00 0.00 0.00 94 1011.3
20260906111600 74 255 0.0 0.0 0.00 0.00 0.00 92 1011.2
20260906110044 74 259 0.0 0.0 0.00 0.00 0.00 93 1011.0
20260906104543 75 261 0.0 1.0 0.00 0.00 0.00 92 1010.9
20260906103042 75 141 0.0 0.0 0.00 0.00 0.00 93 1010.8
20260906101542 75 141 0.0 5.0 0.00 0.00 0.00 94 1010.8
20260906100043 74 98 2.0 2.0 0.00 0.00 0.00 93 1010.5
20260906094540 75 257 0.0 0.0 0.00 0.00 0.00 93 1010.3
20260906093049 75 257 0.0 2.0 0.00 0.00 0.00 94 1010.2
20260906091540 75 246 0.0 0.0 0.00 0.00 0.00 95 1010.2
20260906090039 75 222 0.0 1.0 0.00 0.00 0.00 95 1010.3
20260906084537 75 296 0.0 1.0 0.00 0.00 0.00 95 1010.3
20260906083036 75 81 0.0 1.0 0.00 0.00 0.00 95 1010.0
20260906081548 75 81 0.0 0.0 0.00 0.00 0.00 95 1010.0
20260906080034 75 81 1.0 2.0 0.00 0.00 0.00 94 1010.1
20260906074534 75 349 0.0 0.0 0.00 0.00 0.00 95 1010.1
20260906073047 75 349 0.0 0.0 0.00 0.00 0.00 95 1010.1
20260906071531 75 348 0.0 0.0 0.00 0.00 0.00 95 1010.1
20260906070038 75 349 0.0 0.0 0.00 0.00 0.00 95 1010.1
20260906064528 75 348 0.0 0.0 0.00 0.00 0.00 94 1010.1
20260906063027 76 348 0.0 0.0 0.00 0.00 0.00 94 1010.4
20260906061526 76 349 0.0 0.0 0.00 0.00 0.00 94 1010.4
20260906060023 76 348 0.0 0.0 0.00 0.00 0.00 93 1010.5
20260906054524 77 348 0.0 0.0 0.00 0.00 0.00 93 1010.7
20260906053028 77 349 0.0 2.0 0.00 0.00 0.00 93 1010.6
20260906051522 77 25 0.0 0.0 0.00 0.00 0.00 92 1010.6
20260906050016 77 25 0.0 0.0 0.00 0.00 0.00 92 1010.5
20260906044515 77 25 0.0 0.0 0.00 0.00 0.00 92 1010.5
20260906043018 77 25 0.0 0.0 0.00 0.00 0.00 91 1010.5
20260906041515 78 328 0.0 0.0 0.00 0.00 0.00 91 1010.5
20260906040014 78 328 0.0 0.0 0.00 0.00 0.00 90 1010.6
20260906034520 79 328 0.0 0.0 0.00 0.00 0.00 89 1010.5
20260906033013 79 327 0.0 0.0 0.00 0.00 0.00 88 1010.4
20260906031512 79 327 0.0 0.0 0.00 0.00 0.00 88 1010.3
20260906030012 79 327 0.0 0.0 0.00 0.00 0.00 88 1010.2
20260906024511 80 327 0.0 0.0 0.00 0.00 0.00 87 1010.1
20260906023011 80 327 0.0 0.0 0.00 0.00 0.00 87 1010.1
20260906021510 81 354 0.0 0.0 0.00 0.00 0.00 85 1010.0
20260906020010 81 354 0.0 2.0 0.00 0.00 0.00 85 1009.8
20260906014509 82 6 0.0 0.0 0.00 0.00 0.00 83 1009.7
20260906013009 83 7 0.0 0.0 0.00 0.00 0.00 83 1009.5
20260906011508 84 7 0.0 0.0 0.00 0.00 0.00 77 1009.4
20260906010009 86 7 0.0 0.0 0.00 0.00 0.00 74 1009.2
20260906004507 87 6 0.0 0.0 0.00 0.00 0.00 73 1009.1
20260906003007 88 6 0.0 0.0 0.00 0.00 0.00 66 1009.1
20260906001505 90 6 0.0 0.0 0.00 0.00 0.00 66 1009.2
20260906000005 91 6 0.0 2.0 0.00 0.00 0.00 64 1009.4
20260905234504 95 150 0.0 0.0 0.00 0.00 0.00 56 1009.3
20260905233006 96 150 0.0 1.0 0.00 0.00 0.00 51 1009.3
20260905231511 96 92 0.0 1.0 0.00 0.00 0.00 53 1009.2
20260905230003 97 67 1.0 3.0 0.00 0.00 0.00 51 1009.2
20260905224502 99 94 0.0 1.0 0.00 0.00 0.00 50 1009.3